Location: Berlin
(52.5200°N, 13.4050°E)
Time: 18:33:16
(UTC+01:00)

ISS - Visible Passes

Search period start: 21 March 2019 00:00
Search period end: 31 March 2019 00:00
Orbit: 406 x 411 km, 51.6° (Epoch: 21 March)

Date Brightness Start Highest point End Pass type
(mag) Time Alt. Az. Time Alt. Az. Time Alt. Az.
22 Mar -1.9 19:38:50 10° S 19:40:42 16° SSE 19:40:42 16° SSE visible
23 Mar -2.7 20:22:52 10° SW 20:25:05 31° SSW 20:25:05 31° SSW visible
24 Mar -2.7 19:32:09 10° SSW 19:34:59 27° SSE 19:36:30 19° ESE visible
24 Mar -1.7 21:07:58 10° WSW 21:09:16 22° WSW 21:09:16 22° WSW visible
25 Mar -3.8 20:16:56 10° WSW 20:20:11 57° SSE 20:20:31 53° SE visible
26 Mar -3.3 19:25:57 10° SW 19:29:07 43° SSE 19:31:39 14° E visible
26 Mar -2.6 21:02:13 10° W 21:04:24 38° WSW 21:04:24 38° WSW visible
27 Mar -3.9 20:11:06 10° WSW 20:14:24 73° S 20:15:26 40° E visible
27 Mar -0.9 21:47:37 10° W 21:48:10 14° W 21:48:10 14° W visible
28 Mar -3.7 19:20:01 10° WSW 19:23:17 63° SSE 19:26:23 11° E visible
28 Mar -3.2 20:56:28 10° W 20:59:07 52° WSW 20:59:07 52° WSW visible
29 Mar -3.9 20:05:19 10° W 20:08:37 78° S 20:10:02 31° E visible
29 Mar -1.2 21:41:52 10° W 21:42:45 17° W 21:42:45 17° W visible
30 Mar -3.8 19:14:09 10° W 19:17:27 76° S 19:20:46 10° E visible
30 Mar -3.4 20:50:40 10° W 20:53:37 54° SW 20:53:37 54° SW visible
